Probability
0 0 0 0 0 0 0 0 0 0 0 0 0 0 0 0 0 0 0 0 0 0 0 0 0 0 0 0 0 0 0 0 0 0 0 0 0 0
0 0 0 0 0 0 0 0 0 0 0 0 0 0 0 0 0 0 0 0 0 0 0 0 0 0 0 0 0 0 0 0 0 0 0 0 0 0
0 0 0 0 0 0 0 0 0 0 0 0 0 0 0 0 0 0 0 0 0 0 0 0 0 0 0 0 0 0 0 0 0 0 0 0 0 0
0 0 0 0 0 0 0 0 0 0 0 0 0 0 0 0 0 0 0 0 0 0 0 0 0 0 0 0 0 0 0 0 0 0 0 0 0 0
0 0 0 0 0 0 0 0 0 0 0 0 0 0 0 0 0 0 0 0 0 0 0 0 0 0 0 0 0 0 0 0 0 0 0 0 0 0
0 0 0 0 0 0 0 0 0 0 0 0 0 0 0 0 0 0 0 0 0 0 0 0 0 0 0 0 0 0 0 0 0 0 0 0 0 0
0 0 0 0 0 0 0 0 0 0 0 0 0 0 0 0 0 0 0 0 0 0 0 0 0 0 0 0 0 0 0 0 0 0 0 0 0 0
0 0 0 0 0 0 0 0 0 0 0 0 0 0 0 0 0 0 0 0 0 0 0 0 0 0 0 0 0 0 0 0 0 0 0 0 0 0
0 0 0 0 0 0 0 0 0 0 0 0 0 0 0 0 0 0 0 0 0 0 0 0 0 0 0 0 0 0 0 0 0 0 0 0 0 0
0 0 0 0 0 0 0 0 0 0 0 0 0 0 0 0 0 0 0 0 0 0 0 0 0 0 0 0 0 0 0 0 0 0 0 0 0 0
0 0 0 0 0 0 0 0 0 0 0 0 0 0 0 0 0 0 0 0 0 0 0 0 0 0 0 0 0 0 0 0 0 0 0 0 0 0
0 0 0 0 0 0 0 0 0 0 0 0 0 0 0 0 0 0 0 0 0 0 0 0 0 0 0 0 0 0 0 0 0 0 0 0 0 0
0 0 0 0 0 0 0 0 0 0 0 0 0 0 0 0 0 0 0 0 0 0 0 0 0 0 0 0 0 0 0 0 0 0 0 0 0 0
0 0 0 0 0 0 0 0 0 0 0 0 0 0 0 0 0 0 0 0 0 0 0 0 0 0 0 0 0 0 0 0 0 0 0 0 0 0
0 0 0 0 0 0 0 0 0 0 0 0 0 0 0 0 0 0 0 0 0 0 0 0 0 0 0 0 0 0 0 0 0 0 0 0 0 0
0 0 0 0 0 0 0 0 0 0 0 0 0 0 0 0 0 0 0 0 0 0 0 0 0 0 0 0 0 0 0 0 0 0 0 0 0 0
0 0 0 0 0 0 0 0 0 0 0 0 0 0 0 0 0 0 0 0 0 0 0 0 0 0 0 0 0 0 0 0 0 0 0 0 0 0
0 0 0 0 0 0 0 0 0 0 0 0 0 0 0 0 0 0 0 0 0 0 0 0 0 0 0 0 0 0 0 0 0 0 0 0 0 0
0 0 0 0 0 0 0 0 0 0 0 0 0 0 0 0 0 0 0 0 0 0 0 0 0 0 0 0 0 0 0 0 0 0 0 0 0 0
0 0 0 0 0 0 0 0 0 0 0 0 0 0 0 0 0 0 0 0 0 0 0 0 0 0 0 0 0 0 0 0 0 0 0 0 0 0
0 0 0 0 0 0 0 0 0 0 0 0 0 0 0 0 0 0 0 0 0 0 0 0 0 0 0 0 0 0 0 0 0 0 0 0 0 0
0 0 0 0 0 0 0 0 0 0 0 0 0 0 0 0 0 0 0 0 0 0 0 0 0 0 0 0 0 0 0 0 0 0 0 0 0 0
0 0 0 0 0 0 0 0 0 0 0 0 0 0 0 0 0 0 0 0 0 0 0 0 0 0 0 0 0 0 0 0 0 0 0 0 0 0
Wind_Speed
1 2 4 4 5 6 6 8 10 11 11 9 9 9 8 9 9 11 14 14 15 17 19 20 22 23 23 23 23 24 24 24 24 24 25 25 25 25
2 4 5 5 5 6 7 7 8 10 12 9 9 10 11 11 13 14 14 16 18 19 20 20 21 21 23 24 24 24 24 24 24 24 25 25 25 24
4 5 5 6 7 7 7 7 8 9 11 10 10 10 12 14 13 13 13 14 12 14 16 17 19 21 22 23 24 24 24 24 24 24 24 24 24 24
5 6 7 6 7 8 7 8 8 9 10 12 11 11 13 13 13 13 13 12 12 13 14 17 20 21 22 22 23 22 22 21 22 23 23 23 23 23
6 7 7 8 8 8 9 9 8 8 9 10 11 10 11 11 12 12 13 11 13 12 13 16 19 19 19 19 20 19 18 18 19 21 22 22 22 22
6 7 8 8 9 9 9 9 9 10 10 10 10 10 10 11 10 9 10 10 11 12 13 13 14 15 18 19 20 20 18 17 18 18 19 19 19 20
8 8 7 8 10 9 9 10 10 9 9 9 10 10 10 9 9 9 10 10 11 10 10 10 10 10 11 13 17 18 17 16 15 16 16 16 16 16
9 8 8 8 7 9 12 14 14 13 12 11 10 10 12 11 10 9 9 10 9 7 9 11 10 10 9 9 8 9 12 13 14 14 14 14 15 14
8 8 8 7 8 9 9 12 14 15 15 12 12 12 12 11 11 11 10 10 10 10 9 10 10 9 9 8 7 9 10 11 12 12 13 13 13 13
8 8 8 9 7 9 12 13 13 10 9 9 10 11 11 11 11 10 10 10 11 9 7 8 9 10 11 8 4 6 9 10 11 12 12 12 12 12
8 7 7 8 7 10 12 13 13 10 7 8 11 13 13 13 11 8 8 7 8 8 6 6 8 10 10 8 4 5 9 10 10 11 11 11 11 12
8 7 3 5 9 11 12 12 12 11 12 11 9 8 8 7 7 7 6 7 6 5 4 5 6 7 7 7 7 6 5 7 9 10 10 10 11 10
8 7 5 6 11 12 12 10 10 12 12 10 8 7 6 5 5 5 5 5 5 4 4 5 5 5 5 6 7 7 6 5 5 6 8 10 11 10
7 7 7 10 13 13 10 8 12 12 7 6 6 6 6 6 6 6 6 4 4 5 6 6 4 5 6 6 5 6 7 5 4 4 3 5 8 9
7 9 11 12 13 8 6 10 10 6 6 6 6 5 5 5 6 6 6 5 3 3 4 5 5 5 6 5 6 6 6 5 5 3 1 1 2 4
8 8 9 9 8 7 7 6 5 5 6 6 6 5 5 5 5 6 6 6 5 5 5 6 5 5 6 8 6 7 6 5 5 4 2 2 1 1
10 7 6 6 7 7 7 7 6 6 6 6 6 6 5 5 5 6 5 6 6 7 7 7 5 2 5 9 7 7 7 6 6 5 4 4 4 3
8 5 6 7 7 7 8 7 7 7 7 6 6 6 6 6 6 6 6 6 7 8 9 9 9 7 4 6 12 10 8 7 6 7 6 5 6 5
5 6 6 6 7 7 7 7 7 7 7 6 6 6 6 6 6 7 7 7 7 8 8 9 9 9 9 8 10 15 10 7 7 7 7 7 6 7
5 5 6 7 7 7 7 7 7 7 7 7 7 6 6 7 7 7 8 9 8 8 8 8 9 8 8 7 6 9 16 11 8 7 6 6 6 7
6 6 6 6 7 7 7 7 7 6 7 6 6 7 6 7 7 7 7 7 7 8 8 8 7 7 6 6 7 9 10 14 15 10 8 6 6 7
6 6 6 7 7 7 7 7 7 6 7 6 7 6 6 7 8 8 8 7 7 7 7 6 7 7 8 9 9 9 10 11 13 19 20 16 7 6
6 6 7 7 7 7 7 8 8 7 7 7 7 7 7 7 7 7 7 8 7 7 7 7 7 7 8 8 8 8 11 11 9 11 12 15 16 15
Wind_Direction
308 294 296 304 292 295 292 287 291 294 293 299 295 301 301 295 301 292 289 286 283 279 275 274 274 274 274 274 273 273 273 273 271 270 269 269 268 266
329 322 309 306 308 290 286 288 287 288 290 295 296 298 307 302 297 294 290 288 275 268 266 267 269 271 272 273 272 271 270 270 269 268 266 265 264 263
321 315 311 312 304 305 295 289 286 287 289 294 299 302 301 294 294 294 293 291 286 275 270 270 270 270 270 271 271 271 270 270 270 269 267 265 263 261
324 314 307 305 302 293 298 295 293 295 291 294 298 298 295 293 292 294 293 292 293 289 277 272 272 271 269 268 268 267 266 266 267 268 267 265 264 262
319 312 309 306 300 302 302 296 296 295 293 293 294 295 293 294 297 294 296 297 294 291 278 266 267 267 266 264 264 262 259 258 259 261 262 261 261 260
311 305 301 302 302 305 296 294 297 300 297 294 293 295 295 298 298 300 302 301 299 298 295 291 282 270 264 262 261 260 256 253 252 253 254 254 254 254
310 306 303 306 302 297 302 308 306 300 297 294 294 296 298 303 303 304 299 300 297 298 303 297 292 286 279 264 257 257 254 253 253 251 250 247 243 243
314 312 304 283 283 276 274 281 289 292 297 297 295 296 300 302 305 301 300 301 302 306 305 300 298 295 292 284 274 260 253 253 254 253 250 243 238 237
312 309 307 314 304 307 301 286 276 262 262 277 287 292 298 304 306 301 299 301 299 301 298 296 302 302 297 294 271 260 259 257 256 255 249 240 235 233
308 306 305 310 336 334 316 304 299 297 287 280 291 298 303 308 305 300 300 298 295 295 301 299 308 310 309 307 280 258 261 261 259 255 249 240 233 231
313 309 309 315 357 329 306 300 303 308 296 273 276 279 282 282 285 293 296 298 304 310 328 313 311 316 311 311 305 260 261 263 260 255 248 240 233 229
319 316 310 327 329 315 307 306 311 319 317 310 297 290 289 286 265 274 294 300 305 307 340 321 306 315 307 309 320 317 298 273 259 253 247 239 227 229
314 316 337 349 321 311 303 305 315 310 305 311 320 331 335 329 319 312 307 306 310 304 317 314 301 307 294 300 312 321 320 311 284 255 236 229 222 228
311 322 337 333 316 305 303 315 307 300 309 327 341 346 344 339 333 331 330 321 296 297 309 312 298 313 311 307 311 319 321 316 307 293 266 208 216 223
319 319 310 306 305 300 294 297 298 315 336 341 353 356 350 344 339 339 343 339 332 338 331 320 317 324 327 318 320 323 322 325 332 327 308 249 204 195
325 314 300 296 305 321 316 313 326 349 343 346 357 0 2 359 359 356 354 357 3 4 358 348 344 4 0 345 339 343 346 345 346 352 12 37 66 148
324 323 344 350 351 349 345 347 350 352 352 0 5 9 13 13 9 7 5 7 11 7 5 2 360 30 69 22 355 355 359 5 7 12 30 49 45 37
322 345 354 350 347 343 344 346 351 353 351 356 8 15 17 17 18 19 19 19 19 17 14 10 9 19 29 48 23 2 5 10 16 23 31 45 40 29
348 355 350 346 341 340 342 344 346 351 351 360 12 20 22 26 30 30 28 27 27 26 24 19 15 17 22 20 15 12 11 12 21 31 34 41 41 33
1 351 344 340 338 338 340 342 345 353 2 8 13 21 25 33 37 38 38 34 33 32 30 27 22 19 26 21 11 16 21 22 18 24 32 49 52 50
352 345 339 336 335 335 338 344 352 2 11 11 17 23 27 37 43 45 52 50 42 41 37 31 24 21 41 43 40 34 33 38 40 31 15 32 42 39
346 339 334 335 336 338 344 351 359 13 19 20 24 26 30 36 45 47 47 51 50 49 50 49 43 43 46 49 46 41 39 41 46 47 45 42 42 36
340 334 332 337 343 345 349 355 2 15 21 20 25 28 33 37 40 47 50 52 52 52 54 54 55 54 54 53 54 56 57 54 51 51 51 48 61 67